"Zeitpunkt";"timestamp";"D0";"V0";"V0_max";"T0";"F0";"G0";"S0";"R0";"M0";"T1";"L0";"L0_nn"
"08.04.2024, 00:00";"1712534401";"333";"1";"4";"144";"84";"8";"0";"10";"0";"129";"0";"9955"
"08.04.2024, 00:10";"1712535001";"53";"1";"3";"143";"82";"10";"0";"10";"0";"129";"0";"9955"
"08.04.2024, 00:20";"1712535601";"65";"1";"3";"143";"82";"11";"0";"10";"0";"128";"0";"9955"
"08.04.2024, 00:30";"1712536201";"102";"1";"4";"141";"88";"10";"0";"10";"0";"130";"0";"9955"
"08.04.2024, 00:40";"1712536801";"133";"1";"4";"138";"88";"9";"0";"10";"0";"129";"0";"9955"
"08.04.2024, 00:50";"1712537401";"168";"2";"4";"138";"90";"8";"0";"10";"0";"130";"0";"9955"
"08.04.2024, 01:00";"1712538001";"232";"1";"3";"137";"90";"7";"0";"10";"0";"130";"0";"9955"
"08.04.2024, 01:10";"1712538602";"235";"0";"2";"136";"90";"7";"0";"10";"0";"130";"0";"9955"
"08.04.2024, 01:20";"1712539201";"177";"1";"2";"136";"91";"8";"0";"10";"0";"129";"0";"9955"
"08.04.2024, 01:30";"1712539801";"190";"1";"3";"135";"91";"8";"0";"10";"0";"129";"0";"9955"
"08.04.2024, 01:40";"1712540401";"158";"0";"2";"135";"90";"9";"0";"10";"0";"128";"0";"9955"
"08.04.2024, 01:50";"1712541001";"157";"0";"2";"136";"91";"9";"0";"10";"0";"127";"0";"9955"
"08.04.2024, 02:00";"1712541601";"40";"1";"4";"136";"90";"11";"0";"10";"0";"128";"0";"9951"
"08.04.2024, 02:10";"1712542201";"43";"2";"5";"137";"89";"11";"0";"10";"0";"128";"0";"9951"
"08.04.2024, 02:20";"1712542801";"38";"2";"5";"137";"88";"11";"0";"10";"0";"127";"0";"9951"
"08.04.2024, 02:30";"1712543401";"70";"1";"4";"137";"88";"10";"0";"10";"0";"126";"0";"9951"
"08.04.2024, 02:40";"1712544001";"56";"2";"5";"137";"88";"11";"0";"10";"0";"125";"0";"9951"
"08.04.2024, 02:50";"1712544601";"89";"2";"4";"137";"88";"10";"0";"10";"0";"127";"0";"9951"
"08.04.2024, 03:00";"1712545201";"87";"2";"6";"136";"88";"10";"0";"10";"0";"122";"0";"9946"
"08.04.2024, 03:10";"1712545801";"52";"1";"4";"134";"88";"11";"0";"10";"0";"120";"0";"9946"
"08.04.2024, 03:20";"1712546401";"67";"1";"3";"133";"88";"11";"0";"10";"0";"120";"0";"9946"
"08.04.2024, 03:30";"1712547001";"60";"1";"4";"132";"89";"11";"0";"10";"0";"113";"0";"9946"
"08.04.2024, 03:40";"1712547601";"68";"1";"2";"130";"89";"10";"0";"10";"0";"112";"0";"9946"
"08.04.2024, 03:50";"1712548202";"98";"1";"3";"129";"91";"9";"0";"10";"0";"117";"0";"9946"
"08.04.2024, 04:00";"1712548801";"123";"1";"5";"130";"90";"9";"0";"10";"0";"124";"0";"9941"
"08.04.2024, 04:10";"1712549401";"90";"2";"6";"132";"89";"10";"0";"10";"0";"123";"0";"9941"
"08.04.2024, 04:20";"1712550001";"85";"2";"7";"132";"89";"10";"0";"10";"0";"124";"0";"9941"
"08.04.2024, 04:30";"1712550601";"98";"3";"8";"133";"89";"10";"0";"10";"0";"125";"0";"9941"
"08.04.2024, 04:40";"1712551201";"104";"3";"7";"133";"89";"10";"0";"10";"0";"125";"0";"9941"
"08.04.2024, 04:50";"1712551801";"145";"1";"4";"133";"90";"8";"0";"3";"0";"125";"0";"9941"
"08.04.2024, 05:00";"1712552401";"34";"1";"3";"134";"89";"9";"0";"0";"0";"126";"0";"9934"
"08.04.2024, 05:10";"1712553001";"88";"1";"3";"135";"88";"10";"0";"0";"0";"127";"0";"9934"
"08.04.2024, 05:20";"1712553601";"101";"1";"4";"135";"87";"10";"0";"0";"0";"125";"0";"9934"
"08.04.2024, 05:30";"1712554201";"101";"2";"6";"135";"86";"10";"0";"0";"0";"123";"0";"9934"
"08.04.2024, 05:40";"1712554801";"115";"2";"5";"134";"88";"40";"0";"0";"0";"125";"0";"9934"
"08.04.2024, 05:50";"1712555401";"144";"1";"5";"135";"86";"113";"0";"0";"0";"127";"0";"9934"
"08.04.2024, 06:00";"1712556001";"108";"2";"7";"137";"84";"455";"5";"0";"0";"128";"0";"9934"
"08.04.2024, 06:10";"1712556601";"116";"2";"7";"138";"84";"1,003";"10";"0";"0";"136";"0";"9934"
"08.04.2024, 06:20";"1712557201";"218";"1";"3";"141";"82";"1,293";"10";"0";"0";"139";"0";"9934"
"08.04.2024, 06:30";"1712557801";"340";"1";"3";"143";"82";"1,530";"10";"0";"0";"139";"0";"9934"
"08.04.2024, 06:40";"1712558401";"344";"1";"3";"145";"81";"958";"10";"0";"0";"140";"0";"9934"
"08.04.2024, 06:50";"1712559001";"60";"1";"4";"147";"80";"807";"10";"0";"0";"141";"0";"9934"
"08.04.2024, 07:00";"1712559601";"76";"5";"10";"148";"80";"1,893";"10";"0";"0";"145";"0";"9932"
"08.04.2024, 07:10";"1712560201";"56";"2";"11";"150";"79";"1,727";"10";"0";"0";"146";"0";"9932"
"08.04.2024, 07:20";"1712560801";"59";"2";"6";"153";"79";"937";"10";"0";"0";"150";"0";"9932"
"08.04.2024, 07:30";"1712561401";"78";"4";"9";"153";"78";"1,382";"10";"0";"0";"152";"0";"9932"
"08.04.2024, 07:40";"1712562001";"76";"3";"7";"155";"78";"1,398";"10";"0";"0";"155";"0";"9932"
"08.04.2024, 07:50";"1712562601";"88";"2";"7";"159";"76";"1,623";"10";"0";"0";"160";"0";"9932"
"08.04.2024, 08:00";"1712563201";"45";"2";"6";"161";"75";"1,769";"10";"0";"0";"160";"0";"9930"
"08.04.2024, 08:10";"1712563802";"49";"3";"8";"162";"74";"2,103";"10";"0";"0";"167";"0";"9930"
"08.04.2024, 08:20";"1712564401";"93";"3";"6";"165";"72";"1,906";"10";"0";"0";"180";"0";"9930"
"08.04.2024, 08:30";"1712565001";"73";"2";"6";"169";"72";"2,056";"10";"0";"0";"188";"0";"9930"
"08.04.2024, 08:40";"1712565601";"85";"2";"5";"175";"69";"2,528";"10";"0";"0";"214";"0";"9930"
"08.04.2024, 08:50";"1712566201";"120";"2";"4";"180";"70";"2,759";"10";"0";"0";"214";"0";"9930"
"08.04.2024, 09:00";"1712566801";"95";"1";"4";"181";"68";"2,424";"10";"0";"0";"202";"0";"9926"
"08.04.2024, 09:10";"1712567402";"185";"2";"4";"182";"68";"1,896";"10";"0";"0";"215";"0";"9926"
"08.04.2024, 09:20";"1712568001";"172";"3";"5";"183";"68";"2,536";"10";"0";"0";"207";"0";"9926"
"08.04.2024, 09:30";"1712568601";"183";"3";"6";"185";"69";"2,357";"10";"0";"0";"211";"0";"9926"
"08.04.2024, 09:40";"1712569201";"180";"2";"5";"188";"67";"2,427";"10";"0";"0";"214";"0";"9926"
"08.04.2024, 09:50";"1712569801";"177";"2";"6";"192";"66";"2,343";"10";"0";"0";"229";"0";"9926"
"08.04.2024, 10:00";"1712570401";"166";"1";"4";"195";"68";"2,257";"10";"0";"0";"224";"0";"9926"
"08.04.2024, 10:10";"1712571001";"159";"2";"6";"195";"64";"1,998";"10";"0";"0";"214";"0";"9926"
"08.04.2024, 10:20";"1712571601";"171";"3";"6";"195";"64";"2,082";"10";"0";"0";"211";"0";"9926"
"08.04.2024, 10:30";"1712572202";"164";"3";"6";"196";"63";"1,793";"10";"0";"0";"214";"0";"9926"
"08.04.2024, 10:40";"1712572801";"181";"2";"6";"198";"64";"1,889";"10";"0";"0";"223";"0";"9926"
"08.04.2024, 10:50";"1712573401";"173";"3";"5";"199";"63";"2,157";"10";"0";"0";"223";"0";"9926"
"08.04.2024, 11:00";"1712574001";"171";"3";"6";"202";"60";"2,338";"10";"0";"0";"226";"0";"9919"
"08.04.2024, 11:10";"1712574601";"152";"1";"6";"203";"60";"1,795";"10";"0";"0";"215";"0";"9919"
"08.04.2024, 11:20";"1712575201";"184";"4";"8";"201";"59";"1,574";"10";"0";"0";"202";"0";"9919"
"08.04.2024, 11:30";"1712575801";"136";"3";"7";"203";"61";"529";"5";"0";"0";"215";"0";"9919"
"08.04.2024, 11:40";"1712576401";"178";"3";"6";"206";"59";"1,062";"10";"0";"0";"226";"0";"9919"
"08.04.2024, 11:50";"1712577001";"163";"3";"7";"205";"59";"1,314";"7";"0";"0";"213";"0";"9919"
"08.04.2024, 12:00";"1712577601";"166";"3";"6";"205";"59";"640";"6";"0";"0";"206";"0";"9919"
"08.04.2024, 12:10";"1712578201";"165";"3";"6";"207";"61";"341";"2";"0";"0";"226";"0";"9919"
"08.04.2024, 12:20";"1712578801";"166";"3";"7";"208";"58";"1,066";"10";"0";"0";"219";"0";"9919"
"08.04.2024, 12:30";"1712579401";"169";"3";"7";"208";"57";"690";"9";"0";"0";"209";"0";"9919"
"08.04.2024, 12:40";"1712580001";"159";"2";"6";"208";"58";"341";"1";"0";"0";"209";"0";"9919"
"08.04.2024, 12:50";"1712580601";"162";"3";"7";"206";"60";"277";"1";"0";"0";"196";"0";"9919"
"08.04.2024, 13:00";"1712581201";"181";"4";"6";"203";"62";"194";"0";"0";"0";"193";"0";"9917"
"08.04.2024, 13:10";"1712581801";"176";"3";"7";"202";"62";"115";"0";"0";"0";"190";"0";"9917"
"08.04.2024, 13:20";"1712582401";"193";"3";"7";"200";"64";"88";"0";"0";"0";"187";"0";"9917"
"08.04.2024, 13:30";"1712583001";"205";"3";"6";"198";"63";"71";"0";"0";"0";"185";"0";"9917"
"08.04.2024, 13:40";"1712583601";"180";"3";"6";"196";"64";"70";"0";"1";"0";"182";"0";"9917"
"08.04.2024, 13:50";"1712584201";"164";"2";"5";"196";"62";"80";"0";"1";"0";"187";"0";"9917"
"08.04.2024, 14:00";"1712584801";"101";"4";"9";"195";"62";"84";"0";"0";"0";"183";"0";"9905"
"08.04.2024, 14:10";"1712585401";"90";"3";"6";"195";"63";"65";"0";"2";"0";"180";"0";"9905"
"08.04.2024, 14:20";"1712586001";"126";"2";"6";"193";"67";"84";"0";"0";"0";"184";"0";"9905"
"08.04.2024, 14:30";"1712586601";"185";"1";"4";"192";"70";"162";"0";"1";"0";"183";"0";"9905"
"08.04.2024, 14:40";"1712587201";"236";"1";"4";"192";"67";"160";"0";"4";"0";"193";"0";"9905"
"08.04.2024, 14:50";"1712587801";"285";"0";"2";"195";"65";"341";"0";"0";"0";"198";"0";"9905"
"08.04.2024, 15:00";"1712588401";"264";"1";"3";"199";"66";"533";"8";"0";"0";"200";"0";"9903"
"08.04.2024, 15:10";"1712589001";"157";"0";"2";"204";"62";"646";"9";"0";"0";"208";"0";"9903"
"08.04.2024, 15:20";"1712589601";"72";"0";"3";"204";"60";"2,147";"10";"0";"0";"190";"0";"9903"
"08.04.2024, 15:30";"1712590202";"80";"1";"5";"206";"60";"2,426";"10";"0";"0";"188";"0";"9903"
"08.04.2024, 15:40";"1712590801";"60";"2";"6";"208";"59";"2,376";"10";"0";"0";"192";"0";"9903"
"08.04.2024, 15:50";"1712591401";"98";"2";"5";"209";"59";"2,375";"10";"0";"0";"193";"0";"9903"
"08.04.2024, 16:00";"1712592001";"107";"2";"6";"211";"58";"2,349";"10";"0";"0";"197";"0";"9893"
"08.04.2024, 16:10";"1712592601";"102";"2";"6";"211";"59";"2,303";"10";"0";"0";"188";"0";"9893"
"08.04.2024, 16:20";"1712593201";"165";"2";"6";"213";"56";"2,142";"10";"0";"0";"191";"0";"9893"
"08.04.2024, 16:30";"1712593801";"132";"2";"5";"215";"54";"2,013";"10";"0";"0";"193";"0";"9893"
"08.04.2024, 16:40";"1712594401";"134";"2";"6";"217";"52";"1,795";"10";"0";"0";"195";"0";"9893"
"08.04.2024, 16:50";"1712595001";"142";"3";"7";"217";"52";"1,649";"10";"0";"0";"188";"0";"9893"
"08.04.2024, 17:00";"1712595601";"144";"1";"4";"216";"50";"1,424";"10";"0";"0";"187";"0";"9886"
"08.04.2024, 17:10";"1712596201";"143";"2";"4";"218";"49";"1,162";"10";"0";"0";"195";"0";"9886"
"08.04.2024, 17:20";"1712596801";"122";"2";"6";"214";"52";"977";"10";"0";"0";"180";"0";"9886"
"08.04.2024, 17:30";"1712597401";"152";"1";"4";"215";"50";"625";"10";"0";"0";"180";"0";"9886"
"08.04.2024, 17:40";"1712598001";"121";"1";"4";"212";"55";"499";"10";"0";"0";"179";"0";"9886"
"08.04.2024, 17:50";"1712598601";"120";"1";"4";"208";"58";"314";"0";"0";"0";"166";"0";"9886"
"08.04.2024, 18:00";"1712599201";"109";"1";"4";"203";"58";"253";"0";"0";"0";"158";"0";"9882"
"08.04.2024, 18:10";"1712599801";"100";"2";"4";"195";"64";"157";"0";"0";"0";"152";"0";"9882"
"08.04.2024, 18:20";"1712600401";"105";"1";"3";"189";"66";"74";"0";"0";"0";"148";"0";"9882"
"08.04.2024, 18:30";"1712601001";"106";"1";"4";"182";"70";"16";"0";"0";"0";"143";"0";"9882"
"08.04.2024, 18:40";"1712601601";"104";"1";"4";"178";"71";"10";"0";"0";"0";"139";"0";"9882"
"08.04.2024, 18:50";"1712602201";"68";"0";"2";"173";"74";"11";"0";"0";"0";"138";"0";"9882"
"08.04.2024, 19:00";"1712602801";"92";"0";"2";"169";"76";"10";"0";"0";"0";"134";"0";"9877"
"08.04.2024, 19:10";"1712603401";"109";"0";"1";"167";"76";"10";"0";"0";"0";"135";"0";"9877"
"08.04.2024, 19:20";"1712604001";"124";"0";"1";"164";"77";"9";"0";"0";"0";"133";"0";"9877"
"08.04.2024, 19:30";"1712604601";"55";"0";"1";"161";"78";"11";"0";"0";"0";"136";"0";"9877"
"08.04.2024, 19:40";"1712605201";"114";"0";"3";"160";"79";"9";"0";"0";"0";"133";"0";"9877"
"08.04.2024, 19:50";"1712605801";"151";"2";"4";"160";"78";"9";"0";"0";"0";"139";"0";"9877"
"08.04.2024, 20:00";"1712606401";"158";"2";"4";"162";"78";"9";"0";"0";"0";"149";"0";"9878"
"08.04.2024, 20:10";"1712607001";"161";"3";"5";"167";"74";"9";"0";"0";"0";"159";"0";"9878"
"08.04.2024, 20:20";"1712607601";"96";"4";"13";"183";"60";"10";"0";"5";"0";"181";"0";"9878"
"08.04.2024, 20:30";"1712608201";"141";"6";"17";"188";"61";"9";"0";"0";"0";"171";"0";"9878"
"08.04.2024, 20:40";"1712608801";"164";"2";"8";"184";"64";"8";"0";"0";"0";"160";"0";"9878"
"08.04.2024, 20:50";"1712609401";"194";"1";"5";"185";"60";"8";"0";"0";"0";"163";"0";"9878"
"08.04.2024, 21:00";"1712610001";"87";"3";"6";"183";"65";"10";"0";"0";"0";"158";"0";"9865"
"08.04.2024, 21:10";"1712610601";"190";"2";"6";"177";"66";"8";"0";"0";"0";"145";"0";"9865"
"08.04.2024, 21:20";"1712611201";"237";"1";"4";"172";"70";"7";"0";"0";"0";"141";"0";"9865"
"08.04.2024, 21:30";"1712611801";"277";"1";"2";"171";"68";"6";"0";"0";"0";"144";"0";"9865"
"08.04.2024, 21:40";"1712612401";"270";"0";"2";"171";"70";"6";"0";"0";"0";"150";"0";"9865"
"08.04.2024, 21:50";"1712613001";"92";"1";"2";"169";"74";"10";"0";"0";"0";"147";"0";"9865"
"08.04.2024, 22:00";"1712613601";"32";"1";"2";"168";"71";"12";"0";"8";"0";"147";"0";"9865"
"08.04.2024, 22:10";"1712614201";"55";"1";"4";"173";"68";"11";"0";"0";"0";"162";"0";"9865"
"08.04.2024, 22:20";"1712614801";"81";"2";"5";"171";"75";"10";"0";"0";"0";"153";"0";"9865"
"08.04.2024, 22:30";"1712615401";"103";"0";"3";"169";"76";"10";"0";"7";"0";"149";"0";"9865"
"08.04.2024, 22:40";"1712616001";"129";"0";"2";"165";"77";"9";"0";"0";"0";"148";"0";"9865"
"08.04.2024, 22:50";"1712616601";"133";"0";"1";"165";"77";"9";"0";"0";"0";"148";"0";"9865"
"08.04.2024, 23:00";"1712617201";"134";"0";"1";"164";"78";"9";"0";"0";"0";"148";"0";"9861"
"08.04.2024, 23:10";"1712617802";"135";"0";"1";"163";"78";"9";"0";"0";"0";"148";"0";"9861"
"08.04.2024, 23:20";"1712618401";"320";"1";"5";"167";"74";"5";"0";"0";"0";"150";"0";"9861"
"08.04.2024, 23:30";"1712619001";"90";"3";"8";"170";"71";"9";"0";"10";"0";"148";"0";"9861"
"08.04.2024, 23:40";"1712619601";"173";"2";"5";"169";"77";"8";"0";"10";"0";"149";"0";"9861"
"08.04.2024, 23:50";"1712620201";"195";"2";"4";"168";"77";"8";"0";"0";"0";"147";"0";"9861"
"09.04.2024, 00:00";"1712620801";"231";"1";"5";"164";"79";"7";"0";"10";"0";"147";"0";"9856"
"09.04.2024, 00:10";"1712621401";"280";"1";"2";"165";"76";"7";"0";"7";"0";"152";"0";"9856"
"09.04.2024, 00:20";"1712622001";"79";"2";"6";"171";"73";"8";"0";"0";"0";"157";"0";"9856"
"09.04.2024, 00:30";"1712622601";"149";"3";"7";"170";"70";"9";"0";"0";"0";"157";"0";"9856"
"09.04.2024, 00:40";"1712623201";"167";"3";"6";"166";"74";"8";"0";"0";"0";"151";"0";"9856"
"09.04.2024, 00:50";"1712623801";"214";"4";"10";"172";"67";"7";"0";"0";"0";"153";"0";"9856"
"09.04.2024, 01:00";"1712624401";"245";"4";"10";"176";"66";"6";"0";"0";"0";"164";"0";"9868"
"09.04.2024, 01:10";"1712625001";"245";"7";"14";"178";"66";"6";"0";"0";"0";"163";"0";"9868"
"09.04.2024, 01:20";"1712625601";"229";"5";"11";"178";"66";"7";"0";"0";"0";"162";"0";"9868"
"09.04.2024, 01:30";"1712626201";"225";"6";"12";"176";"67";"7";"0";"0";"0";"157";"0";"9868"
"09.04.2024, 01:40";"1712626801";"220";"5";"11";"174";"68";"7";"0";"0";"0";"159";"0";"9868"
"09.04.2024, 01:50";"1712627401";"218";"6";"12";"172";"70";"7";"0";"0";"0";"157";"0";"9868"
"09.04.2024, 02:00";"1712628001";"222";"5";"11";"170";"71";"7";"0";"0";"0";"155";"0";"9875"
"09.04.2024, 02:10";"1712628601";"230";"4";"10";"167";"72";"7";"0";"0";"0";"147";"0";"9875"
"09.04.2024, 02:20";"1712629201";"241";"2";"7";"164";"74";"6";"0";"0";"0";"138";"0";"9875"
"09.04.2024, 02:30";"1712629801";"242";"2";"5";"162";"75";"6";"0";"0";"0";"139";"0";"9875"
"09.04.2024, 02:40";"1712630401";"197";"2";"5";"159";"76";"7";"0";"0";"0";"139";"0";"9875"
"09.04.2024, 02:50";"1712631001";"178";"2";"4";"156";"79";"8";"0";"0";"0";"136";"0";"9875"
"09.04.2024, 03:00";"1712631601";"186";"2";"5";"153";"79";"8";"0";"0";"0";"135";"0";"9880"
"09.04.2024, 03:10";"1712632201";"176";"2";"5";"151";"80";"8";"0";"0";"0";"135";"0";"9880"
"09.04.2024, 03:20";"1712632801";"171";"3";"4";"149";"81";"8";"0";"0";"0";"137";"0";"9880"
"09.04.2024, 03:30";"1712633401";"172";"3";"5";"148";"82";"8";"0";"0";"0";"137";"0";"9880"
"09.04.2024, 03:40";"1712634001";"177";"3";"5";"147";"82";"8";"0";"0";"0";"138";"0";"9880"
"09.04.2024, 03:50";"1712634601";"169";"4";"7";"146";"82";"8";"0";"0";"0";"138";"0";"9880"
"09.04.2024, 04:00";"1712635201";"177";"4";"6";"146";"83";"8";"0";"0";"0";"140";"0";"9892"
"09.04.2024, 04:10";"1712635801";"173";"3";"6";"147";"82";"8";"0";"0";"0";"141";"0";"9892"
"09.04.2024, 04:20";"1712636401";"180";"4";"6";"150";"80";"8";"0";"0";"0";"143";"0";"9892"
"09.04.2024, 04:30";"1712637001";"205";"4";"13";"153";"79";"7";"0";"5";"0";"145";"0";"9892"
"09.04.2024, 04:40";"1712637601";"201";"5";"10";"153";"79";"7";"0";"5";"0";"143";"0";"9892"
"09.04.2024, 04:50";"1712638201";"202";"6";"12";"153";"80";"7";"0";"10";"0";"143";"0";"9892"
"09.04.2024, 05:00";"1712638801";"196";"7";"13";"152";"81";"7";"0";"10";"0";"143";"0";"9890"
"09.04.2024, 05:10";"1712639401";"197";"8";"14";"151";"81";"7";"0";"6";"0";"144";"0";"9890"
"09.04.2024, 05:20";"1712640001";"196";"7";"15";"151";"81";"7";"0";"0";"0";"143";"0";"9890"
"09.04.2024, 05:30";"1712640601";"203";"7";"15";"150";"82";"7";"0";"4";"0";"140";"0";"9890"
"09.04.2024, 05:40";"1712641201";"207";"6";"14";"148";"84";"7";"0";"10";"0";"136";"0";"9890"
"09.04.2024, 05:50";"1712641801";"190";"6";"12";"146";"86";"8";"0";"10";"0";"136";"0";"9890"
"09.04.2024, 06:00";"1712642401";"199";"3";"8";"145";"87";"12";"0";"10";"0";"135";"0";"9901"
"09.04.2024, 06:10";"1712643001";"204";"4";"7";"144";"88";"8";"0";"10";"0";"135";"0";"9901"
"09.04.2024, 06:20";"1712643601";"207";"4";"7";"143";"88";"7";"0";"10";"0";"135";"0";"9901"
"09.04.2024, 06:30";"1712644201";"211";"5";"10";"140";"87";"8";"0";"10";"0";"131";"0";"9901"
"09.04.2024, 06:40";"1712644801";"253";"6";"13";"135";"85";"6";"0";"10";"0";"123";"0";"9901"
"09.04.2024, 06:50";"1712645401";"219";"9";"21";"132";"85";"26";"0";"10";"0";"120";"0";"9901"
"09.04.2024, 07:00";"1712646001";"221";"8";"17";"129";"85";"35";"0";"10";"0";"119";"0";"9911"
"09.04.2024, 07:10";"1712646601";"220";"9";"22";"127";"85";"45";"0";"10";"0";"115";"0";"9911"
"09.04.2024, 07:20";"1712647201";"219";"8";"21";"125";"85";"16";"0";"10";"0";"114";"0";"9911"
"09.04.2024, 07:30";"1712647801";"216";"7";"17";"123";"79";"22";"0";"10";"0";"109";"0";"9911"
"09.04.2024, 07:40";"1712648401";"210";"10";"23";"124";"80";"30";"0";"10";"0";"110";"0";"9911"
"09.04.2024, 07:50";"1712649001";"204";"8";"20";"123";"80";"31";"0";"10";"0";"111";"0";"9911"
"09.04.2024, 08:00";"1712649601";"202";"7";"18";"122";"78";"41";"0";"10";"0";"111";"0";"9925"
"09.04.2024, 08:10";"1712650201";"194";"9";"17";"123";"78";"45";"0";"9";"0";"119";"0";"9925"
"09.04.2024, 08:20";"1712650801";"197";"7";"16";"124";"77";"125";"0";"0";"0";"128";"0";"9925"
"09.04.2024, 08:30";"1712651401";"202";"6";"17";"127";"77";"469";"4";"0";"0";"129";"0";"9925"
"09.04.2024, 08:40";"1712652001";"199";"6";"16";"130";"76";"766";"8";"0";"0";"129";"0";"9925"
"09.04.2024, 08:50";"1712652601";"190";"7";"13";"130";"75";"221";"0";"0";"0";"127";"0";"9925"
"09.04.2024, 09:00";"1712653201";"194";"6";"11";"130";"74";"187";"0";"0";"0";"126";"0";"9925"
"09.04.2024, 09:10";"1712653801";"188";"9";"17";"129";"72";"154";"0";"0";"0";"123";"0";"9925"
"09.04.2024, 09:20";"1712654401";"191";"8";"18";"130";"72";"148";"0";"0";"0";"125";"0";"9925"
"09.04.2024, 09:30";"1712655001";"190";"9";"19";"130";"69";"241";"0";"0";"0";"125";"0";"9925"
"09.04.2024, 09:40";"1712655601";"185";"10";"23";"129";"66";"157";"0";"0";"0";"121";"0";"9925"
"09.04.2024, 09:50";"1712656201";"190";"11";"23";"126";"61";"103";"0";"0";"0";"114";"0";"9925"
"09.04.2024, 10:00";"1712656801";"194";"13";"23";"125";"61";"112";"0";"0";"0";"123";"0";"9941"
"09.04.2024, 10:10";"1712657401";"200";"10";"22";"131";"60";"428";"3";"0";"0";"152";"0";"9941"
"09.04.2024, 10:20";"1712658001";"202";"8";"18";"136";"59";"1,990";"10";"0";"0";"158";"0";"9941"
"09.04.2024, 10:30";"1712658601";"206";"8";"17";"140";"58";"2,350";"10";"0";"0";"155";"0";"9941"
"09.04.2024, 10:40";"1712659201";"216";"10";"23";"142";"59";"2,385";"10";"0";"0";"157";"0";"9941"
"09.04.2024, 10:50";"1712659801";"204";"10";"26";"139";"58";"1,798";"10";"0";"0";"138";"0";"9941"
"09.04.2024, 11:00";"1712660401";"195";"13";"22";"137";"59";"560";"5";"0";"0";"137";"0";"9944"
"09.04.2024, 11:10";"1712661001";"196";"11";"21";"136";"59";"238";"0";"0";"0";"138";"0";"9944"
"09.04.2024, 11:20";"1712661601";"191";"11";"24";"137";"60";"241";"0";"0";"0";"149";"0";"9944"
"09.04.2024, 11:30";"1712662201";"193";"7";"15";"139";"60";"433";"5";"0";"0";"141";"0";"9944"
"09.04.2024, 11:40";"1712662801";"193";"9";"19";"140";"57";"248";"1";"0";"0";"149";"0";"9944"
"09.04.2024, 11:50";"1712663401";"189";"10";"21";"142";"52";"576";"8";"0";"0";"154";"0";"9944"
"09.04.2024, 12:00";"1712664001";"198";"11";"23";"144";"55";"1,040";"7";"0";"0";"156";"0";"9946"
"09.04.2024, 12:10";"1712664601";"191";"13";"27";"145";"50";"1,000";"8";"0";"0";"153";"0";"9946"
"09.04.2024, 12:20";"1712665201";"202";"13";"29";"146";"50";"1,043";"9";"0";"0";"165";"0";"9946"
"09.04.2024, 12:30";"1712665801";"203";"12";"23";"146";"50";"2,049";"10";"0";"0";"150";"0";"9946"
"09.04.2024, 12:40";"1712666401";"203";"13";"26";"145";"53";"832";"7";"0";"0";"155";"0";"9946"
"09.04.2024, 12:50";"1712667001";"190";"13";"28";"144";"53";"603";"2";"0";"0";"148";"0";"9946"
"09.04.2024, 13:00";"1712667601";"199";"11";"22";"143";"52";"523";"4";"0";"0";"143";"0";"9953"
"09.04.2024, 13:10";"1712668201";"201";"13";"27";"141";"52";"362";"1";"0";"0";"137";"0";"9953"
"09.04.2024, 13:20";"1712668801";"203";"11";"26";"141";"52";"303";"1";"0";"0";"142";"0";"9953"
"09.04.2024, 13:30";"1712669401";"202";"11";"24";"145";"50";"609";"5";"0";"0";"152";"0";"9953"
"09.04.2024, 13:40";"1712670001";"192";"11";"24";"147";"49";"2,016";"10";"0";"0";"150";"0";"9953"
"09.04.2024, 13:50";"1712670601";"193";"14";"29";"149";"48";"2,319";"9";"0";"0";"152";"0";"9953"
"09.04.2024, 14:00";"1712671201";"201";"12";"29";"147";"49";"2,338";"10";"0";"0";"144";"0";"9955"
"09.04.2024, 14:10";"1712671802";"205";"13";"28";"142";"51";"301";"0";"0";"0";"137";"0";"9955"
"09.04.2024, 14:20";"1712672401";"195";"15";"28";"141";"52";"581";"5";"0";"0";"139";"0";"9955"
"09.04.2024, 14:30";"1712673001";"203";"13";"26";"141";"52";"436";"3";"0";"0";"144";"0";"9955"
"09.04.2024, 14:40";"1712673601";"204";"12";"25";"140";"53";"489";"5";"0";"0";"143";"0";"9955"
"09.04.2024, 14:50";"1712674201";"189";"12";"25";"139";"52";"364";"2";"0";"0";"137";"0";"9955"
"09.04.2024, 15:00";"1712674801";"199";"13";"25";"139";"51";"206";"0";"0";"0";"139";"0";"9960"
"09.04.2024, 15:10";"1712675401";"195";"11";"22";"138";"49";"181";"0";"0";"0";"133";"0";"9960"
"09.04.2024, 15:20";"1712676001";"201";"13";"24";"137";"52";"108";"0";"0";"0";"133";"0";"9960"
"09.04.2024, 15:30";"1712676601";"198";"10";"20";"136";"51";"110";"0";"0";"0";"132";"0";"9960"
"09.04.2024, 15:40";"1712677201";"198";"11";"27";"136";"52";"96";"0";"0";"0";"133";"0";"9960"
"09.04.2024, 15:50";"1712677801";"192";"10";"24";"137";"52";"707";"5";"0";"0";"137";"0";"9960"
"09.04.2024, 16:00";"1712678402";"192";"12";"25";"137";"52";"257";"1";"0";"0";"134";"0";"9967"
"09.04.2024, 16:10";"1712679001";"195";"10";"22";"135";"52";"154";"0";"0";"0";"130";"0";"9967"
"09.04.2024, 16:20";"1712679601";"189";"11";"23";"134";"53";"81";"0";"0";"0";"129";"0";"9967"
"09.04.2024, 16:30";"1712680201";"191";"10";"19";"133";"56";"57";"0";"0";"0";"126";"0";"9967"
"09.04.2024, 16:40";"1712680801";"192";"10";"22";"133";"57";"100";"0";"3";"0";"127";"0";"9967"
"09.04.2024, 16:50";"1712681401";"191";"9";"21";"131";"57";"77";"0";"0";"0";"123";"0";"9967"
"09.04.2024, 17:00";"1712682001";"192";"9";"17";"129";"58";"46";"0";"4";"0";"122";"0";"9974"
"09.04.2024, 17:10";"1712682601";"195";"10";"20";"130";"57";"58";"0";"2";"0";"124";"0";"9974"
"09.04.2024, 17:20";"1712683201";"200";"8";"18";"130";"58";"53";"0";"0";"0";"124";"0";"9974"
"09.04.2024, 17:30";"1712683801";"194";"8";"17";"130";"57";"50";"0";"0";"0";"124";"0";"9974"
"09.04.2024, 17:40";"1712684401";"194";"7";"14";"130";"57";"17";"0";"0";"0";"122";"0";"9974"
"09.04.2024, 17:50";"1712685001";"205";"8";"18";"127";"66";"25";"0";"0";"0";"107";"0";"9974"
"09.04.2024, 18:00";"1712685601";"210";"9";"19";"113";"72";"55";"0";"9";"0";"93";"0";"9987"